TimeEDT,TemperatureF,Dew PointF,Humidity,Sea Level PressureIn,VisibilityMPH,Wind Direction,Wind SpeedMPH,Gust SpeedMPH,PrecipitationIn,Events,Conditions,WindDirDegrees,DateUTC
12:53 AM,62.1,59.0,90,29.96,9.0,Calm,Calm,-,0.00,,Overcast,0,2012-10-03 04:53:00
1:53 AM,62.1,59.0,90,29.96,8.0,Calm,Calm,-,0.01,,Overcast,0,2012-10-03 05:53:00
2:53 AM,62.1,60.1,93,29.95,9.0,Calm,Calm,-,N/A,,Overcast,0,2012-10-03 06:53:00
3:53 AM,62.1,60.1,93,29.96,9.0,Calm,Calm,-,N/A,,Overcast,0,2012-10-03 07:53:00
4:53 AM,62.1,60.1,93,29.97,3.0,Calm,Calm,-,N/A,,Overcast,0,2012-10-03 08:53:00
5:07 AM,62.6,60.8,94,29.97,2.5,Calm,Calm,-,N/A,,Overcast,0,2012-10-03 09:07:00
5:53 AM,62.1,60.1,93,29.99,2.0,Calm,Calm,-,N/A,,Overcast,0,2012-10-03 09:53:00
6:25 AM,62.6,60.8,94,30.00,3.0,Calm,Calm,-,N/A,,Overcast,0,2012-10-03 10:25:00
6:34 AM,62.6,60.8,94,30.00,1.0,Calm,Calm,-,N/A,,Overcast,0,2012-10-03 10:34:00
6:53 AM,62.1,60.1,93,30.00,1.0,Calm,Calm,-,N/A,,Overcast,0,2012-10-03 10:53:00
7:00 AM,62.6,60.8,94,30.00,2.0,Calm,Calm,-,N/A,,Overcast,0,2012-10-03 11:00:00
7:53 AM,62.1,60.1,93,30.01,2.0,Calm,Calm,-,N/A,,Overcast,0,2012-10-03 11:53:00
8:11 AM,62.6,60.8,94,30.02,4.0,Calm,Calm,-,N/A,,Overcast,0,2012-10-03 12:11:00
8:53 AM,63.0,61.0,93,30.02,5.0,Calm,Calm,-,N/A,,Overcast,0,2012-10-03 12:53:00
9:53 AM,66.0,62.1,87,30.03,10.0,Calm,Calm,-,N/A,,Overcast,0,2012-10-03 13:53:00
10:53 AM,69.1,64.0,84,30.02,10.0,Calm,Calm,-,N/A,,Overcast,0,2012-10-03 14:53:00
11:11 AM,69.8,62.6,78,30.03,10.0,West,4.6,-,N/A,,Scattered Clouds,270,2012-10-03 15:11:00
11:53 AM,71.1,64.0,78,30.02,10.0,WSW,3.5,-,N/A,,Scattered Clouds,250,2012-10-03 15:53:00
12:53 PM,73.9,64.9,73,30.02,10.0,SW,5.8,-,N/A,,Mostly Cloudy,220,2012-10-03 16:53:00
1:09 PM,73.4,64.4,73,30.02,10.0,SW,3.5,-,N/A,,Mostly Cloudy,220,2012-10-03 17:09:00
1:32 PM,73.4,64.4,73,30.02,10.0,SSW,4.6,-,N/A,,Mostly Cloudy,200,2012-10-03 17:32:00
1:41 PM,75.2,64.4,69,30.02,10.0,SW,4.6,-,N/A,,Scattered Clouds,230,2012-10-03 17:41:00
1:53 PM,75.0,64.9,71,30.00,10.0,SW,4.6,-,N/A,,Scattered Clouds,220,2012-10-03 17:53:00
2:53 PM,75.9,64.9,69,30.00,10.0,Calm,Calm,-,N/A,,Mostly Cloudy,0,2012-10-03 18:53:00
3:53 PM,77.0,64.9,66,30.01,10.0,West,3.5,-,N/A,,Scattered Clouds,270,2012-10-03 19:53:00
5:21 PM,75.2,66.2,73,30.05,10.0,NE,8.1,-,N/A,,Mostly Cloudy,40,2012-10-03 21:21:00
5:34 PM,73.4,64.4,73,30.05,10.0,NE,6.9,-,N/A,,Mostly Cloudy,40,2012-10-03 21:34:00
5:53 PM,72.0,64.9,78,30.04,10.0,East,6.9,-,N/A,,Mostly Cloudy,80,2012-10-03 21:53:00
6:53 PM,70.0,64.0,81,30.06,10.0,ENE,3.5,-,N/A,,Clear,70,2012-10-03 22:53:00
7:29 PM,68.0,64.4,88,30.08,10.0,East,3.5,-,N/A,,Mostly Cloudy,100,2012-10-03 23:29:00
7:46 PM,68.0,64.4,88,30.08,10.0,ENE,4.6,-,N/A,,Mostly Cloudy,70,2012-10-03 23:46:00
7:53 PM,68.0,64.0,87,30.08,10.0,ENE,5.8,-,N/A,,Mostly Cloudy,70,2012-10-03 23:53:00
8:53 PM,66.9,64.0,90,30.09,10.0,ENE,5.8,-,N/A,,Mostly Cloudy,70,2012-10-04 00:53:00
9:00 PM,66.2,64.4,94,30.10,10.0,East,3.5,-,N/A,,Mostly Cloudy,80,2012-10-04 01:00:00
9:53 PM,64.0,62.1,93,30.11,7.0,Calm,Calm,-,N/A,,Clear,0,2012-10-04 01:53:00
10:53 PM,64.9,62.1,90,30.12,7.0,Calm,Calm,-,N/A,,Mostly Cloudy,0,2012-10-04 02:53:00
11:53 PM,64.0,62.1,93,30.12,4.0,Calm,Calm,-,N/A,,Mostly Cloudy,0,2012-10-04 03:53:00